| time (UTC) | temp F | wind direction | speed MPH | gust MPH | rain 1hr in | rain 24hr in | rain mn in | humidity % | barometer mb |
| 20260506153049 | 72 | 281 | 0.0 | 2.0 | 0.00 | 0.00 | 0.00 | 31 | 1014.4 |
| 20260506151537 | 74 | 145 | 0.0 | 2.0 | 0.00 | 0.00 | 0.00 | 30 | 1014.4 |
| 20260506150034 | 73 | 232 | 0.0 | 1.0 | 0.00 | 0.00 | 0.00 | 31 | 1014.4 |
| 20260506144530 | 70 | 253 | 0.0 | 1.0 | 0.00 | 0.00 | 0.00 | 34 | 1014.3 |
| 20260506143033 | 68 | 176 | 0.0 | 1.0 | 0.00 | 0.00 | 0.00 | 36 | 1014.2 |
| 20260506141523 | 67 | 125 | 0.0 | 2.0 | 0.00 | 0.00 | 0.00 | 38 | 1014.1 |
| 20260506140020 | 65 | 142 | 0.0 | 3.0 | 0.00 | 0.00 | 0.00 | 39 | 1013.8 |
| 20260506134518 | 64 | 119 | 0.0 | 3.0 | 0.00 | 0.00 | 0.00 | 42 | 1013.6 |
| 20260506133016 | 63 | 158 | 0.0 | 2.0 | 0.00 | 0.00 | 0.00 | 43 | 1013.5 |
| 20260506131517 | 61 | 120 | 0.0 | 1.0 | 0.00 | 0.00 | 0.00 | 45 | 1013.4 |
| 20260506130014 | 59 | 153 | 0.0 | 1.0 | 0.00 | 0.00 | 0.00 | 49 | 1013.2 |
| 20260506124511 | 58 | 181 | 0.0 | 3.0 | 0.00 | 0.00 | 0.00 | 49 | 1012.9 |
| 20260506123008 | 59 | 198 | 0.0 | 0.0 | 0.00 | 0.00 | 0.00 | 47 | 1012.8 |
| 20260506121506 | 59 | 210 | 0.0 | 2.0 | 0.00 | 0.00 | 0.00 | 45 | 1012.7 |
| 20260506120006 | 59 | 215 | 0.0 | 1.0 | 0.00 | 0.00 | 0.00 | 44 | 1012.6 |
| 20260506114504 | 60 | 228 | 0.0 | 1.0 | 0.00 | 0.00 | 0.00 | 43 | 1012.6 |
| 20260506113003 | 60 | 143 | 1.0 | 5.0 | 0.00 | 0.00 | 0.00 | 44 | 1012.5 |
| 20260506111600 | 60 | 170 | 0.0 | 0.0 | 0.00 | 0.00 | 0.00 | 44 | 1012.5 |
| 20260506104555 | 60 | 166 | 0.0 | 1.0 | 0.00 | 0.00 | 0.00 | 43 | 1012.3 |
| 20260506103054 | 61 | 225 | 0.0 | 1.0 | 0.00 | 0.00 | 0.00 | 43 | 1012.2 |
| 20260506101601 | 61 | 176 | 0.0 | 2.0 | 0.00 | 0.00 | 0.00 | 44 | 1012.0 |
| 20260506100050 | 61 | 160 | 0.0 | 2.0 | 0.00 | 0.00 | 0.00 | 45 | 1012.0 |
| 20260506094607 | 60 | 135 | 0.0 | 1.0 | 0.00 | 0.00 | 0.00 | 44 | 1011.9 |
| 20260506093148 | 61 | 115 | 0.0 | 1.0 | 0.00 | 0.00 | 0.00 | 43 | 1011.7 |
| 20260506091544 | 62 | 115 | 0.0 | 1.0 | 0.00 | 0.00 | 0.00 | 44 | 1011.6 |
| 20260506090043 | 61 | 126 | 0.0 | 0.0 | 0.00 | 0.00 | 0.00 | 43 | 1011.5 |
| 20260506084541 | 62 | 129 | 0.0 | 2.0 | 0.00 | 0.00 | 0.00 | 41 | 1011.5 |
| 20260506083041 | 62 | 139 | 0.0 | 1.0 | 0.00 | 0.00 | 0.00 | 41 | 1011.5 |
| 20260506081538 | 62 | 146 | 0.0 | 0.0 | 0.00 | 0.00 | 0.00 | 41 | 1011.5 |
| 20260506073035 | 65 | 250 | 0.0 | 3.0 | 0.00 | 0.00 | 0.00 | 35 | 1011.4 |
| 20260506071531 | 65 | 297 | 0.0 | 1.0 | 0.00 | 0.00 | 0.00 | 35 | 1011.2 |
| 20260506061530 | 66 | 346 | 0.0 | 1.0 | 0.00 | 0.00 | 0.00 | 33 | 1010.9 |
| 20260506044513 | 69 | 238 | 0.0 | 3.0 | 0.00 | 0.00 | 0.00 | 29 | 1010.2 |
| 20260506043011 | 70 | 264 | 0.0 | 4.0 | 0.00 | 0.00 | 0.00 | 28 | 1010.1 |
| 20260506041510 | 71 | 212 | 2.0 | 7.0 | 0.00 | 0.00 | 0.00 | 27 | 1010.0 |
| 20260506040032 | 71 | 313 | 1.0 | 6.0 | 0.00 | 0.00 | 0.00 | 27 | 1009.9 |
| 20260506034510 | 71 | 294 | 2.0 | 7.0 | 0.00 | 0.00 | 0.00 | 26 | 1009.7 |
| 20260506033007 | 71 | 267 | 2.0 | 8.0 | 0.00 | 0.00 | 0.00 | 26 | 1009.6 |
| 20260506031519 | 72 | 257 | 1.0 | 7.0 | 0.00 | 0.00 | 0.00 | 25 | 1009.2 |
| 20260506030008 | 72 | 308 | 3.0 | 8.0 | 0.00 | 0.00 | 0.00 | 25 | 1008.9 |
| 20260506024516 | 73 | 284 | 2.0 | 11.0 | 0.00 | 0.00 | 0.00 | 25 | 1008.7 |
| 20260506023005 | 73 | 259 | 3.0 | 10.0 | 0.00 | 0.00 | 0.00 | 24 | 1008.4 |
| 20260506021509 | 73 | 221 | 3.0 | 9.0 | 0.00 | 0.00 | 0.00 | 24 | 1008.2 |
| 20260506020005 | 74 | 246 | 4.0 | 10.0 | 0.00 | 0.00 | 0.00 | 24 | 1008.0 |
| 20260506014511 | 75 | 250 | 5.0 | 10.0 | 0.00 | 0.00 | 0.00 | 22 | 1008.0 |
| 20260506013003 | 76 | 253 | 4.0 | 14.0 | 0.00 | 0.00 | 0.00 | 22 | 1007.9 |
| 20260506011503 | 76 | 309 | 5.0 | 12.0 | 0.00 | 0.00 | 0.00 | 23 | 1007.8 |
| 20260506010003 | 77 | 278 | 3.0 | 9.0 | 0.00 | 0.00 | 0.00 | 23 | 1007.5 |
| 20260506004501 | 77 | 252 | 6.0 | 14.0 | 0.00 | 0.00 | 0.00 | 23 | 1007.5 |
| 20260506003100 | 77 | 306 | 2.0 | 13.0 | 0.00 | 0.00 | 0.00 | 23 | 1007.4 |
| 20260506003001 | 77 | 8 | 2.0 | 13.0 | 0.00 | 0.00 | 0.00 | 23 | 1007.5 |
| 20260506001559 | 78 | 36 | 2.0 | 7.0 | 0.00 | 0.00 | 0.00 | 24 | 1007.3 |
| 20260505234607 | 77 | 11 | 2.0 | 15.0 | 0.00 | 0.00 | 0.00 | 23 | 1007.2 |
| 20260505233110 | 78 | 259 | 5.0 | 9.0 | 0.00 | 0.00 | 0.00 | 23 | 1007.2 |
| 20260505231602 | 77 | 273 | 1.0 | 11.0 | 0.00 | 0.00 | 0.00 | 24 | 1007.2 |
| 20260505230055 | 77 | 235 | 7.0 | 16.0 | 0.00 | 0.00 | 0.00 | 23 | 1007.3 |
| 20260505224657 | 79 | 297 | 5.0 | 12.0 | 0.00 | 0.00 | 0.00 | 24 | 1007.3 |
| 20260505223055 | 78 | 245 | 7.0 | 19.0 | 0.00 | 0.00 | 0.00 | 23 | 1007.6 |
| 20260505221552 | 79 | 325 | 4.0 | 14.0 | 0.00 | 0.00 | 0.00 | 23 | 1007.7 |
| 20260505220050 | 79 | 305 | 4.0 | 14.0 | 0.00 | 0.00 | 0.00 | 22 | 1007.7 |
| 20260505214554 | 79 | 242 | 7.0 | 16.0 | 0.00 | 0.00 | 0.00 | 24 | 1007.8 |
| 20260505213048 | 78 | 178 | 5.0 | 18.0 | 0.00 | 0.00 | 0.00 | 24 | 1008.0 |
| 20260505211556 | 79 | 225 | 7.0 | 18.0 | 0.00 | 0.00 | 0.00 | 25 | 1008.2 |
| 20260505210045 | 78 | 258 | 2.0 | 15.0 | 0.00 | 0.00 | 0.00 | 26 | 1008.2 |
| 20260505204547 | 79 | 39 | 5.0 | 13.0 | 0.00 | 0.00 | 0.00 | 26 | 1008.4 |
| 20260505203042 | 78 | 37 | 4.0 | 12.0 | 0.00 | 0.00 | 0.00 | 29 | 1008.4 |
| 20260505201542 | 78 | 214 | 3.0 | 12.0 | 0.00 | 0.00 | 0.00 | 29 | 1008.6 |
| 20260505200046 | 76 | 6 | 1.0 | 10.0 | 0.00 | 0.00 | 0.00 | 33 | 1008.7 |
| 20260505194540 | 77 | 257 | 4.0 | 10.0 | 0.00 | 0.00 | 0.00 | 33 | 1008.8 |
| 20260505193038 | 78 | 86 | 3.0 | 15.0 | 0.00 | 0.00 | 0.00 | 33 | 1008.9 |
| 20260505191540 | 78 | 322 | 3.0 | 13.0 | 0.00 | 0.00 | 0.00 | 32 | 1008.9 |
| 20260505190039 | 77 | 143 | 6.0 | 13.0 | 0.00 | 0.00 | 0.00 | 34 | 1009.1 |
| 20260505184534 | 77 | 218 | 5.0 | 12.0 | 0.00 | 0.00 | 0.00 | 36 | 1009.3 |
| 20260505183035 | 77 | 233 | 6.0 | 11.0 | 0.00 | 0.00 | 0.00 | 34 | 1009.6 |
| 20260505181530 | 75 | 248 | 5.0 | 11.0 | 0.00 | 0.00 | 0.00 | 36 | 1009.4 |
| 20260505180028 | 75 | 181 | 4.0 | 12.0 | 0.00 | 0.00 | 0.00 | 37 | 1009.5 |
| 20260505174532 | 74 | 169 | 3.0 | 12.0 | 0.00 | 0.00 | 0.00 | 40 | 1009.5 |
| 20260505173026 | 74 | 115 | 4.0 | 11.0 | 0.00 | 0.00 | 0.00 | 42 | 1009.5 |
| 20260505171524 | 73 | 146 | 6.0 | 13.0 | 0.00 | 0.00 | 0.00 | 43 | 1009.6 |
| 20260505170021 | 73 | 246 | 1.0 | 8.0 | 0.00 | 0.00 | 0.00 | 46 | 1009.6 |
| 20260505164520 | 73 | 197 | 5.0 | 9.0 | 0.00 | 0.00 | 0.00 | 46 | 1009.5 |
| 20260505163017 | 72 | 162 | 3.0 | 9.0 | 0.00 | 0.00 | 0.00 | 48 | 1009.6 |
| 20260505161516 | 71 | 259 | 3.0 | 9.0 | 0.00 | 0.00 | 0.00 | 49 | 1009.7 |